Regional Weather Roundup
Issued by NWS Goodland, KS

Home | Current Version | Previous Version | Graphics & Text | Print | Product List | Glossary On
Versions: 1 2 3 4 5 6 7 8 9 10 11 12 13 14 15 16 17 18 19 20 21 22 23 24 25 26 27 28 29 30 31 32 33 34 35 36 37 38 39 40 41 42 43 44 45 46 47 48 49 50
000
ASUS43 KGLD 291508
RWRGLD

GOODLAND FORECAST AREA HOURLY WEATHER ROUNDUP
NATIONAL WEATHER SERVICE GOODLAND KS
900 AM MDT SUN MAR 29 2015

...OFFICIAL OBSERVATIONS...

CITY           SKY/WX    TMP DP  RH WIND       PRES   REMARKS
GOODLAND KS    SUNNY     53  24  32 NW36G44   30.19R
HILL CITY KS   PTSUNNY   60  24  25 NW32G40   30.10R
IMPERIAL NEB     N/A     53  28  38 N33G40    30.18R
MCCOOK NEB     SUNNY     59  29  31 NW25G35   30.13R
AKRON CO       SUNNY     47  25  42 N31G43    30.26R
BURLINGTON CO  SUNNY     52  18  26 N25G35    30.23R
LIMON CO       SUNNY     44  19  36 N32G39    30.30R
$$

...UNOFFICIAL OBSERVATIONS...

CITY           SKY/WX    TMP DP  RH WIND       PRES   REMARKS
COLBY KS       SUNNY     55  30  38 NW31G44   30.18R
GOVE KS          N/A     58  32  37 MISG        N/A
LENORA KS        N/A     57  32  39 MISG        N/A
NORTON KS      SUNNY     59  19  21 NW31G38   30.10R
SHARON SPRINGS   N/A     55  25  31 N26G38      N/A
KIT CARSON CO    N/A     51  24  34 MISG        N/A
YUMA CO          N/A     49  24  37 N25G33      N/A
$$



USA.gov is the U.S. government's official web portal to all federal, state and local government web resources and services.